Flag for Brazil Weather past 2 weeks in Fortaleza, Ceará, Brazil

Now
81 °F

Passing clouds.


Feels Like: 83 °F
Forecast: N/A
Wind: 13 mph from East

Location: Fortaleza Aeropor-To

Current Time: Dec 22, 2014 at 6:45:49 PM

Latest Report: Dec 22, 2014 at 6:00 PM


Visibility: N/A

Pressure: 29.86 "Hg

Humidity: 66%

Dew point: 68 °F

Location of FortalezaLocation

Historic Weather in Fortaleza — Graph

°F

Fortaleza temperature yesterday

Maximum temperature yesterday: 88 °F (at 12:00 PM)
Minimum temperature yesterday: 79 °F (at 2:00 AM)
Average temperature yesterday: 82 °F

Past Weeks' High & Low Weather Summary

 TemperatureHumidityPressure
High88 °F (Dec 8, 12:00 PM)83% (Dec 9, 6:00 AM)29.95 "Hg (Dec 9, 6:00 AM)
Low77 °F (Dec 9, 6:00 AM)46% (Dec 18, 1:00 PM)29.74 "Hg (Dec 13, 2:00 AM)
Average82 °F66%29.87 "Hg
* Reported Dec 7 5:00 PM — Dec 22 5:00 PM, Fortaleza, Weather by CustomWeather, © 2014

Note: Actual official high and low records may vary slightly from our data, if they occured in-between our weather recording intervals... More about our weather records

Advertising

Fortaleza weather history for previous 24 hours

 ConditionsComfort  
Time TempWeatherWind HumidityBarometerVisibility
5:00 PM
Dec 22
82 °FSunny.15 mph58%29.86 "Hg10 mi
4:00 PM84 °FPassing clouds.15 mph51%29.86 "HgN/A
3:00 PM86 °FPassing clouds.17 mph52%29.86 "HgN/A
2:00 PM86 °FPartly sunny.22 mph55%29.86 "HgN/A
1:00 PM84 °FScattered clouds.21 mph58%29.86 "HgN/A
12:00 PM86 °FPassing clouds.18 mph55%29.92 "HgN/A
11:00 AM86 °FScattered clouds.18 mph55%29.92 "HgN/A
10:00 AM84 °FScattered clouds.17 mph55%29.95 "HgN/A
9:00 AM84 °FScattered clouds.20 mph55%29.95 "HgN/A
8:00 AM84 °FScattered clouds.17 mph58%29.92 "HgN/A
7:00 AM81 °FSunny.17 mph62%29.89 "Hg10 mi
6:00 AM79 °FScattered clouds.15 mph65%29.89 "HgN/A
5:00 AM79 °FPassing clouds.12 mph70%29.86 "HgN/A
4:00 AM79 °FPassing clouds.17 mph70%29.86 "HgN/A
3:00 AM79 °FPassing clouds.15 mph70%29.86 "HgN/A
2:00 AM79 °FPassing clouds.9 mph70%29.86 "HgN/A
1:00 AM81 °FPassing clouds.13 mph70%29.89 "HgN/A
12:00 AM81 °FPassing clouds.16 mph66%29.89 "HgN/A
11:00 PM
Dec 21
81 °FPassing clouds.14 mph66%29.92 "HgN/A
10:00 PM81 °FPassing clouds.13 mph70%29.92 "HgN/A
9:00 PM81 °FPassing clouds.16 mph70%29.89 "HgN/A
8:00 PM81 °FPassing clouds.15 mph70%29.89 "HgN/A
7:00 PM81 °FPassing clouds.14 mph70%29.86 "HgN/A
6:00 PM81 °FClear.13 mph66%29.86 "Hg10 mi
Weather by CustomWeather, © 2014

See weather overviewHow to use our weather pages